RH
47 40 37 38 45 47 41 38 35 34 33 33 34 34 35 34 33 32 32 31 30 30 32 39 30 28 30 28 26 25 26 27 28 29 33 36 33 30 25 26 25 23 18
44 38 38 44 43 41 40 36 34 34 34 34 33 32 31 31 32 32 34 35 35 34 33 34 36 35 34 35 35 35 32 27 25 25 26 28 34 34 35 30 25 23 19
42 41 45 43 40 41 40 36 36 36 35 31 29 28 28 29 29 31 33 35 34 34 34 32 32 33 34 35 36 37 36 38 37 31 28 29 32 35 36 31 32 30 27
43 44 44 44 43 41 40 37 32 29 26 24 23 22 22 22 23 26 27 26 26 25 26 28 30 31 31 32 32 33 34 35 35 36 38 39 38 37 32 28 27 36 44
44 47 45 48 47 42 32 29 26 23 20 17 16 16 16 16 17 18 17 17 14 14 17 19 21 23 25 30 31 32 32 32 32 33 37 40 40 37 39 39 33 33 44
45 43 43 45 42 31 27 24 22 18 14 13 13 13 12 11 9 8 8 8 7 7 8 9 10 12 13 17 21 25 29 32 31 32 32 36 38 37 34 30 31 34 38
46 42 40 40 33 27 25 21 16 12 11 11 11 10 8 7 6 6 6 6 6 7 7 7 7 7 8 9 11 15 21 24 25 27 29 32 35 37 38 37 32 30 32
51 44 40 36 33 26 22 14 11 10 10 10 9 8 7 7 7 6 6 7 7 7 7 8 8 8 8 9 9 10 13 17 21 24 27 28 34 35 37 37 36 35 33
51 49 40 35 32 24 14 10 10 10 10 9 9 8 8 9 8 6 6 6 7 7 7 8 8 8 8 9 10 10 11 12 14 16 22 27 33 33 37 38 37 37 38
53 49 41 33 27 16 10 10 10 10 9 10 9 9 9 9 8 7 7 7 7 7 7 7 7 7 8 8 9 10 10 11 12 14 24 30 33 40 51 52 49 48 48
53 51 44 31 19 11 11 9 10 10 10 10 9 9 9 8 8 7 7 7 7 7 8 8 8 8 9 9 11 12 13 15 16 21 26 34 38 34 37 43 44 43 41
57 54 44 26 15 12 11 9 10 10 10 11 10 9 9 8 8 8 8 8 8 9 9 9 9 9 10 10 11 12 14 14 15 18 21 25 26 28 29 31 32 31 32
59 50 40 25 14 17 10 10 11 11 11 10 10 10 9 8 8 8 9 9 10 10 9 8 8 9 9 11 11 11 13 13 13 16 20 22 23 22 22 22 22 23 24
54 47 38 31 27 14 10 10 11 11 11 11 10 11 10 9 9 10 11 12 11 8 7 7 7 7 7 9 12 12 13 14 14 15 16 18 17 17 18 19 22 22 23
49 46 40 35 20 12 11 11 11 11 11 11 10 11 9 10 12 13 13 11 8 7 7 7 7 6 6 8 10 12 14 16 18 18 19 18 19 18 17 20 23 24 26
42 40 39 35 16 12 12 12 12 11 12 11 10 11 10 12 14 14 12 10 8 7 7 7 7 7 7 8 9 12 15 18 20 23 24 23 23 24 24 23 22 21 21
42 37 41 30 15 13 13 12 12 12 12 11 11 11 12 14 15 13 11 10 8 8 8 8 7 8 8 9 9 14 18 19 22 30 29 31 30 25 25 24 24 24 23
42 35 36 28 20 14 13 13 13 13 13 11 11 12 14 15 15 13 11 10 9 8 8 8 8 8 8 8 11 16 20 23 25 27 30 28 29 26 28 30 31 31 30
34 32 30 22 15 15 14 14 14 14 13 12 12 13 15 15 13 12 11 10 9 9 9 10 10 10 9 8 10 18 19 19 21 21 22 22 23 24 23 23 26 27 29
33 30 28 19 16 16 15 15 15 14 13 13 14 15 13 13 12 12 11 11 11 11 12 13 14 13 13 12 11 15 18 20 19 20 19 18 19 20 20 21 21 21 21
32 32 25 19 17 16 16 16 15 15 15 14 14 12 12 12 13 13 13 13 13 14 15 16 16 16 16 15 14 15 18 22 24 22 18 21 20 19 18 14 14 17 19
32 29 23 19 18 17 17 17 16 16 14 13 13 12 12 13 14 15 15 15 16 16 17 18 19 19 19 18 18 18 21 26 32 25 25 23 22 22 20 16 14 13 14
32 27 22 19 18 18 18 18 18 16 14 15 13 13 14 15 16 18 18 17 17 18 19 20 20 21 21 22 23 24 23 27 24 29 29 31 31 29 26 25 24 20 19
28 25 22 20 19 19 19 19 17 16 17 16 14 15 16 17 19 19 19 19 19 20 21 22 22 23 24 25 27 29 28 30 31 30 34 34 38 35 33 30 29 27 25
25 23 22 21 20 20 20 19 18 18 19 16 16 17 17 19 19 20 20 21 21 22 23 23 25 26 26 27 29 31 32 32 33 36 36 36 37 36 34 35 33 31 30
22 22 21 20 20 21 21 20 19 20 19 17 18 19 20 22 22 21 22 22 23 24 25 25 26 27 28 29 31 32 33 35 36 38 38 38 37 37 38 37 36 37 36